This is the latest recevied weather packets stored in our database for station/object KA8OAD-10. If no packets are shown the sender has not sent any weather packets the latest 10 day(s).
| Time | Temp. | Humidity | Pressure | Rain* | Wind** | Luminosity | Snow |
|---|---|---|---|---|---|---|---|
| 1777902149 | 13.89° C | 60% | 1007.2 hPa | 0 mm | - | 97 W/m² | - |
| 1777901853 | 13.89° C | 62% | 1007.3 hPa | 0 mm | - | 56 W/m² | - |
| 1777901552 | 13.33° C | 61% | 1007.2 hPa | 0 mm | - | 56 W/m² | - |
| 1777901252 | 13.33° C | 61% | 1007.3 hPa | 0 mm | - | 54 W/m² | - |
| 1777900951 | 13.33° C | 61% | 1007.3 hPa | 0 mm | - | 142 W/m² | - |
| 1777900050 | 12.78° C | 61% | 1007.5 hPa | 0 mm | - | 67 W/m² | - |
| 1777899750 | 12.78° C | 63% | 1007.4 hPa | 0 mm | - | 81 W/m² | - |
| 1777899453 | 12.22° C | 62% | 1007.5 hPa | 0 mm | - | 162 W/m² | - |
| 1777899152 | 12.22° C | 63% | 1007.5 hPa | 0 mm | - | 125 W/m² | - |
| 1777898852 | 12.22° C | 64% | 1007.5 hPa | 0 mm | - | 132 W/m² | - |
| 1777898551 | 11.67° C | 64% | 1007.6 hPa | 0 mm | - | 123 W/m² | - |
| 1777897650 | 11.11° C | 64% | 1007.5 hPa | 0 mm | - | 49 W/m² | - |
| 1777897054 | 11.11° C | 66% | 1007.5 hPa | 0 mm | - | 49 W/m² | - |
| 1777896752 | 10.56° C | 65% | 1007.5 hPa | 0 mm | - | 69 W/m² | - |
| 1777896452 | 10.56° C | 66% | 1007.5 hPa | 0 mm | - | 63 W/m² | - |
| 1777896151 | 10.56° C | 66% | 1007.5 hPa | 0 mm | - | 72 W/m² | - |
| 1777895852 | 10° C | 66% | 1007.4 hPa | 0 mm | - | 39 W/m² | - |
| 1777895250 | 10° C | 68% | 1007.3 hPa | 0 mm | - | 54 W/m² | - |
| 1777894352 | 9.44° C | 68% | 1007.3 hPa | 0 mm | - | 58 W/m² | - |
| 1777894052 | 9.44° C | 68% | 1007.3 hPa | 0 mm | - | 67 W/m² | - |
| 1777892850 | 9.44° C | 68% | 1007.1 hPa | 0 mm | - | 19 W/m² | - |
| 1777892553 | 9.44° C | 68% | 1007.1 hPa | 0 mm | - | 16 W/m² | - |
| 1777892253 | 9.44° C | 68% | 1007.1 hPa | 0 mm | - | 14 W/m² | - |
| 1777891952 | 9.44° C | 68% | 1007.1 hPa | 0 mm | - | 11 W/m² | - |
| 1777891652 | 9.44° C | 68% | 1007.1 hPa | 0 mm | - | 9 W/m² | - |
* Rain latest hour (hover to see other rain measurements)
** Current wind speed in m/s (hover to see current wind gust speed)